Nickajack Lake Weather Center

Moon Phase Calendar



Nickajack Lake Water Level
Online Cameras

 


      

Current Conditions in Ketner Mill
9/27/2022 9:46:20 PM

53°F
Feels Like 52
Clear
Humidity
79%
Pressure
30.15"
Wind
3.8 mph (NNW)
Dew Point
47°F
UV Index
0/10 (Low)
Visibility
6 mi

Hourly Forecast

Date & Time Tue, Sep 27
9:00 PM
Tue, Sep 27
10:00 PM
Tue, Sep 27
11:00 PM
Wed, Sep 28
12:00 AM
Wed, Sep 28
1:00 AM
Wed, Sep 28
2:00 AM
Wed, Sep 28
3:00 AM
Wed, Sep 28
4:00 AM
Wed, Sep 28
5:00 AM
Wed, Sep 28
6:00 AM
Wed, Sep 28
7:00 AM
Wed, Sep 28
8:00 AM
Wed, Sep 28
9:00 AM
Wed, Sep 28
10:00 AM
Wed, Sep 28
11:00 AM
Wed, Sep 28
12:00 PM
Wed, Sep 28
1:00 PM
Wed, Sep 28
2:00 PM
Wed, Sep 28
3:00 PM
Wed, Sep 28
4:00 PM
Wed, Sep 28
5:00 PM
Wed, Sep 28
6:00 PM
Wed, Sep 28
7:00 PM
Wed, Sep 28
8:00 PM
Wed, Sep 28
9:00 PM
Wed, Sep 28
10:00 PM
Wed, Sep 28
11:00 PM
Thu, Sep 29
12:00 AM
Thu, Sep 29
1:00 AM
Thu, Sep 29
2:00 AM
Thu, Sep 29
3:00 AM
Thu, Sep 29
4:00 AM
Thu, Sep 29
5:00 AM
Thu, Sep 29
6:00 AM
Thu, Sep 29
7:00 AM
Thu, Sep 29
8:00 AM
Thu, Sep 29
9:00 AM
Thu, Sep 29
10:00 AM
Thu, Sep 29
11:00 AM
Thu, Sep 29
12:00 PM
Thu, Sep 29
1:00 PM
Thu, Sep 29
2:00 PM
Thu, Sep 29
3:00 PM
Thu, Sep 29
4:00 PM
Thu, Sep 29
5:00 PM
Thu, Sep 29
6:00 PM
Thu, Sep 29
7:00 PM
Thu, Sep 29
8:00 PM
Condition
Clear

Clear

Clear

Clear

Clear

Clear

Clear

Clear

Clear

Clear

Clear

Clear

Clear

Clear

Clear

Clear

Clear

Clear

Clear

Clear

Clear

Clear

Clear

Clear

Clear

Clear

Clear

Clear

Clear

Clear

Clear

Clear

Clear

Clear

Clear

Clear

Clear

Clear

Clear

Clear

Clear

Clear

Clear

Clear

Clear

Clear

Clear

Clear
Temperature 53°F53°F53°F52°F51°F50°F48°F47°F47°F46°F46°F52°F59°F63°F65°F67°F69°F69°F69°F68°F66°F61°F56°F55°F54°F52°F50°F50°F52°F52°F51°F50°F50°F50°F49°F52°F55°F60°F64°F67°F70°F71°F72°F72°F70°F65°F59°F56°F
Feels Like 52°F52°F51°F50°F49°F49°F47°F46°F45°F44°F45°F50°F56°F60°F63°F65°F67°F67°F67°F66°F64°F59°F54°F53°F52°F50°F48°F48°F50°F50°F49°F48°F48°F46°F45°F50°F54°F58°F62°F66°F68°F70°F71°F70°F69°F64°F57°F55°F
Cloudiness 0%0%0%0%0%0%0%0%0%0%0%0%0%0%0%0%0%0%0%0%0%0%0%0%0%0%0%0%0%0%0%0%0%0%0%0%0%0%0%0%0%0%0%0%0%0%0%0%
Visibility 6 mi6 mi6 mi6 mi6 mi6 mi6 mi6 mi6 mi6 mi6 mi6 mi6 mi6 mi6 mi6 mi6 mi6 mi6 mi6 mi6 mi6 mi6 mi6 mi6 mi6 mi6 mi6 mi6 mi6 mi6 mi6 mi6 mi6 mi6 mi6 mi6 mi6 mi6 mi6 mi6 mi6 mi6 mi6 mi6 mi6 mi6 mi6 mi
Precipitation 0%0%0%0%0%0%0%0%0%0%0%0%0%0%0%0%0%0%0%0%0%0%0%0%0%0%0%0%0%0%0%0%0%0%0%0%0%0%0%0%0%0%0%0%0%0%0%0%
Humidity 75%79%75%71%68%67%64%63%63%63%64%55%43%33%29%27%27%27%29%31%39%46%52%54%56%62%67%67%61%63%67%70%71%74%76%71%63%54%46%39%36%34%33%35%41%49%59%67%
Dew Point 46°F47°F45°F43°F41°F39°F35°F35°F34°F33°F33°F35°F35°F33°F31°F32°F33°F33°F34°F35°F39°F39°F38°F37°F38°F38°F39°F39°F38°F39°F39°F40°F40°F40°F41°F42°F42°F42°F42°F41°F40°F40°F40°F42°F44°F44°F43°F44°F
Pressure 30.15"30.15"30.15"30.18"30.18"30.21"30.21"30.21"30.24"30.24"30.27"30.27"30.27"30.27"30.27"30.24"30.24"30.21"30.18"30.18"30.18"30.21"30.24"30.27"30.27"30.27"30.27"30.27"30.27"30.27"30.27"30.24"30.24"30.27"30.27"30.3"30.27"30.27"30.27"30.24"30.18"30.15"30.12"30.12"30.12"30.12"30.12"30.12"
Wind Speed 4 mph3.8 mph3.5 mph3.5 mph4 mph4.1 mph4.3 mph3.9 mph3.4 mph3.9 mph3.5 mph3.7 mph4.7 mph7.2 mph8.9 mph9.2 mph9 mph9.7 mph11 mph11.2 mph9.9 mph8.2 mph6.7 mph7.9 mph8.5 mph7.4 mph6.6 mph7.8 mph9.4 mph9.8 mph8.9 mph9.2 mph10.2 mph10.4 mph10.2 mph10.6 mph11.7 mph12.2 mph11.4 mph10.7 mph10.9 mph11.3 mph11.1 mph11 mph9.6 mph8 mph5.6 mph5.1 mph
Wind
Direction
343°
NNW
339°
NNW
341°
NNW
341°
NNW
351°
N
351°
N
355°
N
355°
N
358°
N
355°
N
353°
N
356°
N
13°
NNE
19°
NNE
14°
NNE
14°
NNE
14°
NNE
12°
NNE
14°
NNE
16°
NNE
13°
NNE
17°
NNE
25°
NNE
23°
NNE
19°
NNE
20°
NNE
27°
NNE
28°
NNE
36°
NE
35°
NE
41°
NE
42°
NE
47°
NE
48°
NE
48°
NE
51°
NE
53°
NE
58°
ENE
58°
ENE
55°
NE
51°
NE
52°
NE
50°
NE
51°
NE
43°
NE
33°
NNE
16°
NNE
11°
N

Daily Forecast

Date High Low Precip. Humidity
Today
Sep 27

Clear
72 °F
47 °F
0%
27%
Wednesday
Sep 28

Clear
69 °F
46 °F
0%
27%
Thursday
Sep 29

Clear
72 °F
49 °F
0%
39%
Friday
Sep 30

Clouds
69 °F
47 °F
0%
38%
Saturday
Oct 1

Rain
61 °F
57 °F
93%
96%
Sunday
Oct 2

Clouds
60 °F
57 °F
28%
92%
Monday
Oct 3

Clouds
64 °F
57 °F
0%
77%
Tuesday
Oct 4

Clouds
74 °F
58 °F
1%
54%
Wednesday
Oct 5

Clear
77 °F
55 °F
0%
45%
Thursday
Oct 6

Clouds
81 °F
56 °F
0%
42%
Friday
Oct 7

Clouds
84 °F
63 °F
0%
42%
Saturday
Oct 8

Clouds
78 °F
63 °F
23%
57%
Sunday
Oct 9

Rain
76 °F
60 °F
46%
73%
Monday
Oct 10

Rain
79 °F
62 °F
76%
71%
Tuesday
Oct 11

Clear
86 °F
62 °F
0%
42%
Wednesday
Oct 12

Rain
80 °F
60 °F
100%
56%

Temperature 8-14 Day Outlook



Precipitation 8-14 Day Outlook




Quick Links
Nickajack Lake News
Nickajack Lake Photos
Nickajack Lake Videos




About Us
Contact Us
Site Map
Search Site
Advertise With Us
   
Nickajack.USLakes.info
THE NICKAJACK LAKE WEBSITE

Copyright 2022, Lakes Online
Privacy    |    Legal